Temperature
22 22 22 22 21 21 21 20 20 20 20 19 19 19 19 19 19 18 18 18 18 18 18 18 18 18 18 18 18 18 18 18 17 17 17 17 17 17 17 17 17 17 17
22 22 22 22 21 21 21 21 20 20 20 20 19 19 19 19 19 19 18 18 18 18 18 18 18 18 18 18 18 18 18 17 17 17 17 17 17 17 17 17 17 17 17
23 22 22 22 21 21 21 21 21 20 20 20 19 19 19 19 19 18 18 18 18 18 18 18 18 18 18 18 18 18 17 17 17 17 17 17 17 17 17 17 17 17 17
23 23 22 22 22 22 21 21 21 21 20 20 20 19 19 19 19 19 19 18 18 18 18 18 18 18 18 18 18 18 17 17 17 17 17 17 17 17 17 17 17 17 17
23 23 23 23 22 22 22 21 21 21 20 20 20 20 19 19 19 19 19 18 18 18 18 18 18 18 18 18 18 18 17 17 17 17 17 17 17 17 17 17 17 17 17
23 23 23 22 22 22 22 22 21 21 21 20 20 20 20 19 19 19 19 18 18 18 18 18 18 18 18 18 18 17 17 17 17 17 17 17 17 17 17 17 17 17 17
23 23 23 22 22 22 22 21 21 21 21 20 20 20 20 19 19 19 19 18 18 18 18 18 18 18 18 17 17 17 17 17 17 17 17 17 16 16 16 16 16 16 16
23 23 23 23 23 23 22 22 22 21 21 21 20 20 20 19 19 19 19 19 18 18 18 18 18 18 17 17 17 17 17 17 17 17 17 16 16 16 16 16 16 16 16
23 23 23 23 23 23 22 22 22 22 21 21 20 20 20 19 19 19 19 18 18 18 18 18 17 17 17 17 17 17 17 17 17 16 16 16 16 16 16 16 16 16 15
23 23 23 23 23 23 22 22 22 22 21 21 20 20 20 20 19 19 19 19 18 18 18 18 17 17 17 17 17 17 16 16 16 16 16 16 16 16 16 16 15 15 15
23 23 23 23 23 23 22 22 22 21 21 21 20 20 20 20 19 19 19 19 18 18 18 18 17 17 17 17 17 17 16 16 16 16 16 16 16 16 16 15 15 15 15
24 23 23 23 22 22 22 22 22 21 21 20 20 20 20 19 19 19 19 18 18 18 18 17 17 17 17 17 16 16 16 16 16 16 16 16 16 15 15 15 15 15 15
23 23 23 23 23 22 22 22 22 22 21 21 20 20 20 19 19 19 19 18 18 18 17 17 17 17 17 16 16 16 16 16 16 16 16 16 15 15 15 15 15 15 15
23 23 23 23 23 22 22 22 22 21 21 21 20 20 20 20 19 19 19 18 18 18 17 17 17 17 16 16 16 16 16 16 16 16 16 15 15 15 15 15 15 15 14
22 22 23 23 23 22 22 22 21 21 21 21 20 20 20 20 19 19 18 18 18 17 17 17 17 17 16 16 16 16 16 16 16 15 15 15 15 15 15 15 14 14 14
22 22 23 22 22 22 22 21 21 21 21 21 20 20 20 19 19 19 18 18 18 17 17 17 17 16 16 16 16 16 15 15 15 15 15 15 15 15 14 14 14 14 14
22 22 22 22 22 22 22 22 21 21 21 21 20 20 20 20 19 19 18 18 18 17 17 17 16 16 16 16 16 16 15 15 15 15 15 15 15 15 14 14 14 14 14
22 22 22 22 22 22 21 21 21 20 20 20 20 20 20 19 19 19 18 18 18 17 17 17 16 16 16 16 16 15 15 15 15 15 15 15 14 14 14 14 14 14 14
22 22 22 22 22 21 21 21 20 20 20 20 20 20 19 19 19 18 18 18 17 17 17 17 16 16 16 16 15 15 15 15 15 14 14 14 14 14 14 14 14 14 14
21 21 22 22 22 21 21 20 20 20 20 20 20 19 19 19 19 18 18 18 17 17 17 17 16 16 16 16 15 15 15 15 14 14 14 14 14 14 14 14 14 13 13
21 21 21 21 21 21 20 20 20 20 20 20 19 19 19 19 18 18 18 17 17 17 17 16 16 16 16 15 15 15 15 15 14 14 14 14 14 14 13 13 13 13 13
20 20 20 20 21 20 20 20 20 20 19 19 19 18 18 18 18 18 17 17 17 17 16 16 16 16 15 15 15 15 15 14 14 14 14 14 14 13 13 13 13 13 12
20 20 20 20 20 20 20 19 19 19 19 19 18 18 18 18 17 17 17 17 17 16 16 16 16 16 15 15 15 14 14 14 14 14 14 13 13 13 13 13 12 12 12
19 19 19 19 19 19 19 19 19 19 19 18 18 18 18 17 17 17 17 16 16 16 16 16 16 15 15 15 15 14 14 14 14 13 13 13 13 13 13 12 12 12 12
19 19 19 18 18 18 18 18 18 18 18 18 18 18 17 17 17 17 16 16 16 16 16 16 16 15 15 15 15 14 14 14 13 13 13 13 13 13 12 12 12 12 12
18 18 18 18 18 18 18 18 18 18 18 17 17 17 17 17 17 16 16 16 16 16 15 15 15 15 15 15 14 14 14 13 13 13 13 12 12 12 12 12 12 12 12
Wind_Speed
9 7 8 8 7 7 7 7 6 6 5 3 3 3 2 1 1 1 2 4 4 4 3 2 2 2 2 2 2 2 2 2 2 2 2 2 2 1 1 0 0 0 1
7 8 8 8 9 8 8 8 7 7 6 4 3 3 3 2 1 1 2 3 4 4 3 3 2 2 2 2 2 2 2 1 2 2 2 1 2 2 1 1 0 1 1
12 11 10 10 9 9 10 9 8 7 7 6 4 3 3 2 1 1 1 1 3 4 4 4 3 3 3 2 1 2 3 2 1 1 2 2 1 1 2 1 1 1 1
11 11 11 11 11 11 10 9 8 7 7 7 7 7 5 4 3 2 2 1 2 3 4 4 3 3 2 2 2 2 2 3 2 0 1 1 2 2 1 2 1 1 1
12 12 13 13 11 10 10 9 8 8 7 7 8 7 5 4 3 2 2 2 1 2 3 4 3 2 2 2 2 2 2 2 2 1 1 1 1 1 1 1 2 2 2
11 12 11 9 9 8 8 8 9 8 8 8 8 8 8 6 5 4 3 2 1 1 2 3 3 2 2 2 2 2 2 2 2 1 1 1 1 1 1 2 2 2 2
10 11 11 12 11 11 10 9 9 8 8 8 8 8 8 8 7 6 5 4 2 2 3 3 2 2 2 2 2 2 2 2 2 2 1 1 1 1 2 1 1 1 2
10 11 12 12 13 13 12 10 10 9 8 8 8 7 7 6 5 6 5 5 4 4 3 3 3 3 3 3 2 2 2 2 2 2 2 1 1 1 2 2 2 1 2
9 10 11 11 12 12 12 12 11 10 9 9 8 7 7 7 6 5 5 4 3 3 4 4 4 3 3 3 3 2 2 2 2 2 2 1 1 1 2 2 2 2 2
8 9 10 11 11 11 11 11 11 11 10 9 8 8 7 7 6 5 5 4 4 3 4 4 4 3 3 3 3 3 2 2 1 1 1 1 1 1 1 2 2 2 3
7 8 8 8 8 8 9 10 10 9 8 8 7 7 7 7 6 6 6 6 5 5 5 5 4 4 4 3 3 3 3 3 1 1 2 2 1 1 1 1 2 2 2
6 7 7 6 7 8 9 10 10 10 9 9 8 7 7 7 7 7 6 6 6 6 6 5 5 4 4 4 4 4 4 4 3 3 2 2 2 1 1 1 2 2 3
5 5 5 6 7 8 8 9 9 10 9 9 9 7 7 8 8 8 7 6 6 6 6 6 6 5 4 4 4 4 4 4 4 4 3 3 3 3 2 2 2 2 2
4 5 6 6 6 7 7 8 8 8 9 9 9 9 9 9 8 7 7 6 6 7 7 7 6 6 5 5 5 5 5 4 4 4 4 4 4 4 4 3 3 2 2
4 5 5 6 6 6 7 8 8 8 9 9 9 9 8 7 7 7 7 6 7 8 7 6 5 5 5 5 5 5 5 5 4 4 4 4 5 6 4 3 3 3 2
6 5 5 5 6 7 8 8 8 8 8 9 8 8 7 7 7 7 7 6 6 6 6 6 6 5 5 5 7 6 5 5 4 4 4 4 3 4 4 5 5 5 5
5 5 5 5 6 7 8 9 8 7 8 8 7 7 7 7 7 7 7 7 7 6 5 5 5 5 5 6 7 8 5 4 4 4 4 4 3 3 3 4 4 5 6
5 5 4 4 4 5 5 5 6 7 7 6 6 6 7 7 6 6 7 6 5 6 6 6 6 5 5 6 7 7 5 4 4 4 4 4 3 3 2 3 3 3 4
5 5 5 5 4 5 6 6 7 7 6 6 6 7 7 7 7 7 7 5 5 5 5 6 6 6 5 6 7 6 4 3 4 3 3 3 3 3 2 2 3 3 4
2 3 3 3 4 4 5 7 7 7 7 7 7 7 7 7 8 7 6 4 5 5 6 5 6 6 6 6 7 7 4 3 3 3 3 4 4 4 4 4 3 4 4
3 3 4 3 4 4 6 6 5 7 7 6 5 5 6 6 6 5 5 5 5 5 5 4 4 5 6 6 7 7 5 5 4 3 3 4 5 6 6 5 5 6 4
2 3 3 3 2 4 6 5 5 6 5 5 5 5 5 5 5 5 4 5 5 5 4 3 3 3 4 5 6 7 7 6 5 5 4 4 6 6 5 5 5 5 3
2 2 3 3 2 2 5 5 4 3 4 5 5 5 5 5 5 6 5 4 4 4 4 4 4 3 3 3 5 6 7 7 5 4 5 4 4 5 4 4 4 3 2
1 2 3 2 1 1 2 3 3 3 4 5 5 5 5 4 4 4 4 5 5 5 4 4 4 3 3 3 2 3 3 5 4 3 3 3 2 2 2 1 2 2 2
1 2 3 3 3 2 2 1 2 3 4 4 4 5 5 5 5 5 5 6 6 7 7 6 5 5 5 5 6 4 3 3 3 2 1 1 1 1 1 1 1 2 2
2 2 3 3 3 3 2 2 2 3 4 4 4 4 4 5 5 4 3 3 4 5 7 6 6 5 6 5 5 6 5 4 4 3 2 2 2 2 2 2 2 2 3
Wind_Direction
209 192 186 179 172 173 176 178 176 170 154 144 149 148 162 150 119 138 151 151 146 139 132 127 115 113 119 119 116 113 98 75 82 86 55 31 38 58 40 28 116 265 234
191 187 182 177 178 179 180 179 183 177 172 170 162 153 143 147 153 123 118 141 144 145 147 137 131 125 118 99 96 107 117 97 88 112 103 29 359 7 12 20 139 260 250
194 189 188 189 181 185 187 187 185 179 176 163 138 120 94 82 93 116 134 145 152 154 151 147 144 135 136 145 154 149 143 145 101 101 139 146 212 312 339 349 345 305 278
194 188 189 192 192 194 189 182 180 178 175 164 161 161 165 172 187 177 168 143 146 152 151 148 144 141 143 154 176 155 154 149 164 115 75 141 150 147 321 326 321 310 284
195 190 193 194 195 191 187 183 179 181 177 175 175 171 170 171 155 148 146 145 135 143 149 151 151 151 149 154 139 123 137 145 162 160 141 106 79 106 153 278 315 325 302
192 190 189 184 186 184 185 181 181 187 183 180 181 179 175 168 159 163 171 175 165 154 156 156 159 159 158 164 163 149 141 142 145 147 146 152 151 169 170 219 265 292 302
188 186 183 184 186 186 188 186 185 191 189 184 189 190 184 177 179 180 185 181 179 190 195 174 169 168 180 175 159 151 158 162 155 169 174 174 186 173 168 170 233 276 299
187 188 190 191 191 191 190 188 188 190 188 190 195 191 184 183 187 183 182 187 194 197 188 176 174 174 169 167 156 159 180 162 169 177 168 164 188 177 179 175 176 258 295
192 191 187 189 191 191 192 191 190 191 192 191 185 186 185 183 186 183 181 184 188 185 174 171 171 169 164 162 156 161 169 152 168 181 179 191 216 203 204 190 182 182 241
190 189 188 190 191 191 191 189 192 195 193 187 188 193 185 182 180 175 181 185 183 169 163 171 173 169 168 166 159 160 158 146 176 186 169 197 224 210 206 205 203 198 204
193 191 192 193 186 181 185 189 191 190 185 184 184 185 183 182 177 182 191 189 182 173 175 179 178 179 180 175 168 175 164 170 197 204 188 217 207 204 224 212 202 206 203
189 190 187 178 178 182 185 188 188 187 186 182 181 188 184 181 186 192 196 189 187 184 182 179 178 187 189 185 180 187 183 184 197 211 202 227 214 214 227 216 221 222 216
181 181 177 177 180 184 184 183 185 187 181 175 178 184 189 190 196 199 197 191 187 183 179 177 183 190 192 191 195 192 193 198 206 209 209 224 211 230 229 222 230 236 233
187 182 183 185 182 180 181 181 186 181 175 174 180 188 197 201 202 199 195 192 187 187 188 190 192 194 195 198 200 197 198 207 217 218 218 224 219 227 228 229 231 225 223
195 197 194 190 182 184 183 180 180 178 176 174 184 196 199 200 196 193 192 189 191 196 192 190 195 198 199 210 206 202 204 210 224 232 231 229 225 226 226 233 226 217 217
205 203 193 186 187 191 187 182 181 177 171 173 188 193 185 185 190 191 187 185 188 187 182 187 191 197 211 213 205 200 205 209 217 232 241 237 233 240 246 247 234 218 217
208 205 199 192 193 194 187 183 180 171 170 180 187 186 179 185 192 190 183 189 191 185 186 192 195 204 215 211 207 200 195 207 220 226 235 245 243 228 247 262 257 240 237
202 203 197 196 192 185 180 169 162 170 177 181 184 184 183 188 187 185 190 193 186 184 190 195 202 206 219 210 203 197 199 210 223 226 225 228 244 241 239 252 266 266 258
203 201 199 185 167 166 168 159 166 172 176 189 194 193 188 185 184 188 193 192 184 187 193 193 198 204 220 212 204 193 198 211 229 233 229 220 234 248 221 220 256 277 283
181 180 177 148 144 159 157 159 171 176 191 200 201 195 186 183 188 191 187 183 183 194 195 202 204 206 214 213 205 193 200 212 228 235 234 228 238 244 219 214 227 253 269
160 153 147 139 156 152 148 154 168 197 206 196 188 184 182 185 181 177 176 176 180 182 190 201 212 211 214 213 208 198 198 207 217 227 240 243 239 236 232 224 230 242 250
133 140 141 145 143 147 154 165 197 210 189 174 175 179 180 184 175 169 176 177 175 177 186 194 213 223 219 214 215 205 203 204 212 225 234 236 229 225 227 228 240 242 231
158 145 143 138 130 154 160 179 210 194 173 171 176 179 175 178 170 171 176 174 173 182 196 202 217 226 224 224 223 216 211 211 220 233 233 232 222 217 223 227 226 219 213
165 136 125 135 173 202 173 189 189 173 176 179 182 181 178 175 170 172 177 182 188 194 198 206 217 227 230 227 225 226 220 220 228 242 238 222 219 213 216 224 236 227 217
208 156 166 189 203 201 190 200 190 171 180 183 184 184 182 178 183 188 189 193 201 198 198 205 205 208 228 230 208 202 212 213 208 188 179 197 208 217 234 246 251 237 221
194 183 192 200 208 192 192 208 206 189 178 182 188 191 189 187 189 192 200 203 203 208 203 200 196 213 222 213 202 204 208 197 168 155 195 214 219 230 242 246 249 238 231
Height
1517 1520 1522 1525 1527 1530 1531 1533 1535 1536 1538 1539 1540 1542 1543 1544 1545 1546 1547 1548 1549 1549 1550 1550 1551 1551 1551 1552 1553 1554 1554 1555 1555 1556 1556 1557 1557 1557 1557 1558 1558 1558 1559
1515 1518 1520 1523 1525 1527 1530 1532 1534 1535 1537 1539 1540 1542 1543 1544 1545 1546 1547 1548 1549 1549 1550 1550 1550 1551 1551 1552 1552 1553 1553 1554 1554 1555 1555 1556 1557 1556 1556 1557 1557 1557 1558
1511 1514 1517 1520 1523 1525 1528 1530 1532 1534 1536 1538 1539 1541 1542 1543 1544 1545 1546 1548 1548 1549 1549 1550 1550 1550 1551 1551 1551 1552 1553 1553 1554 1554 1555 1555 1555 1556 1556 1556 1556 1556 1556
1507 1511 1514 1517 1520 1523 1526 1528 1531 1533 1535 1536 1538 1539 1540 1542 1543 1544 1546 1547 1548 1549 1549 1549 1550 1550 1550 1551 1551 1552 1552 1552 1553 1553 1554 1555 1554 1555 1555 1556 1556 1555 1555
1503 1507 1510 1514 1517 1520 1523 1526 1529 1531 1533 1534 1536 1538 1539 1541 1543 1544 1545 1546 1547 1548 1548 1549 1549 1550 1550 1550 1551 1551 1551 1552 1552 1553 1553 1554 1554 1554 1554 1554 1554 1555 1554
1499 1503 1507 1511 1514 1517 1520 1523 1526 1528 1531 1533 1535 1536 1538 1540 1541 1543 1544 1545 1546 1547 1548 1548 1549 1549 1549 1549 1550 1550 1551 1551 1551 1552 1552 1552 1553 1553 1553 1553 1553 1553 1553
1495 1499 1503 1506 1510 1513 1516 1519 1522 1525 1528 1531 1533 1535 1537 1538 1540 1541 1543 1544 1545 1546 1547 1547 1548 1548 1548 1548 1549 1549 1550 1550 1550 1550 1551 1551 1551 1552 1552 1552 1551 1551 1551
1492 1495 1498 1502 1506 1509 1512 1515 1518 1521 1525 1528 1530 1533 1535 1537 1538 1540 1541 1542 1543 1544 1545 1546 1546 1547 1547 1548 1548 1548 1548 1548 1548 1549 1549 1549 1549 1550 1550 1550 1550 1549 1549
1488 1491 1494 1498 1501 1505 1508 1512 1515 1518 1521 1524 1527 1530 1532 1534 1536 1537 1539 1540 1541 1542 1543 1544 1545 1545 1545 1546 1546 1546 1547 1547 1547 1547 1547 1547 1547 1548 1548 1548 1548 1549 1547
1486 1488 1491 1494 1498 1501 1505 1509 1512 1515 1518 1521 1524 1527 1529 1531 1533 1535 1536 1538 1539 1540 1541 1542 1543 1543 1543 1544 1544 1544 1545 1545 1545 1545 1546 1546 1546 1546 1546 1546 1546 1546 1546
1484 1486 1489 1492 1495 1498 1502 1505 1508 1512 1515 1518 1521 1523 1526 1528 1530 1532 1534 1535 1537 1538 1539 1539 1540 1541 1541 1542 1542 1542 1543 1543 1543 1543 1543 1544 1544 1544 1544 1543 1543 1543 1543
1482 1484 1487 1490 1493 1495 1498 1502 1505 1508 1511 1514 1517 1520 1522 1524 1527 1529 1531 1532 1534 1535 1536 1537 1537 1538 1539 1540 1540 1540 1541 1541 1541 1541 1541 1541 1541 1541 1541 1541 1541 1540 1540
1480 1483 1485 1487 1490 1493 1495 1497 1501 1504 1508 1511 1514 1517 1519 1521 1523 1525 1528 1529 1530 1531 1533 1534 1534 1535 1536 1537 1538 1538 1538 1538 1538 1538 1539 1539 1539 1539 1539 1538 1538 1538 1537
1479 1480 1483 1485 1487 1490 1492 1495 1498 1501 1504 1507 1510 1512 1515 1517 1520 1522 1524 1526 1527 1528 1529 1530 1531 1533 1534 1534 1535 1535 1536 1536 1536 1536 1536 1536 1536 1536 1536 1536 1535 1535 1535
1477 1479 1481 1483 1485 1488 1490 1492 1495 1498 1501 1504 1506 1508 1511 1514 1517 1519 1521 1522 1524 1525 1526 1527 1528 1529 1530 1531 1532 1532 1533 1533 1533 1533 1533 1533 1533 1533 1533 1533 1533 1532 1532
1476 1478 1479 1481 1483 1485 1487 1489 1492 1495 1498 1500 1503 1506 1507 1510 1513 1515 1517 1519 1520 1522 1523 1524 1525 1526 1527 1528 1529 1529 1529 1530 1530 1530 1530 1530 1529 1530 1530 1530 1529 1529 1528
1474 1476 1477 1478 1481 1483 1484 1486 1489 1492 1495 1497 1500 1502 1503 1506 1509 1512 1513 1515 1517 1518 1520 1521 1522 1523 1524 1525 1525 1526 1526 1526 1526 1526 1526 1526 1526 1526 1526 1526 1525 1525 1525
1472 1474 1475 1477 1479 1481 1483 1484 1488 1491 1493 1495 1497 1499 1501 1503 1506 1508 1510 1511 1513 1515 1516 1517 1518 1519 1520 1521 1522 1522 1522 1522 1522 1522 1522 1522 1522 1522 1522 1522 1521 1521 1521
1471 1472 1474 1476 1477 1479 1482 1484 1487 1489 1491 1492 1493 1496 1498 1500 1502 1504 1506 1508 1510 1511 1512 1514 1515 1516 1516 1517 1518 1518 1518 1517 1517 1518 1518 1518 1518 1518 1518 1518 1517 1517 1517
1469 1471 1473 1474 1475 1478 1480 1483 1484 1486 1487 1489 1492 1494 1495 1497 1498 1500 1502 1504 1506 1507 1509 1510 1511 1511 1512 1513 1514 1514 1514 1513 1513 1514 1514 1514 1514 1514 1514 1514 1514 1513 1514
1468 1470 1471 1472 1474 1476 1479 1480 1482 1483 1485 1487 1489 1491 1492 1494 1496 1498 1500 1501 1503 1504 1505 1507 1507 1508 1508 1509 1510 1510 1510 1509 1509 1510 1510 1510 1510 1510 1510 1510 1510 1510 1511
1466 1467 1469 1471 1473 1475 1477 1478 1480 1481 1483 1485 1487 1488 1490 1492 1493 1495 1497 1499 1500 1501 1502 1503 1504 1504 1505 1505 1505 1506 1506 1506 1505 1505 1506 1506 1506 1506 1506 1507 1507 1507 1508
1464 1466 1467 1469 1471 1473 1474 1476 1478 1479 1481 1483 1484 1485 1487 1489 1490 1492 1494 1495 1496 1498 1499 1500 1500 1501 1502 1502 1502 1502 1503 1502 1502 1502 1502 1503 1502 1502 1503 1503 1503 1504 1504
1463 1465 1466 1467 1468 1471 1472 1474 1475 1476 1478 1479 1480 1482 1483 1485 1487 1488 1490 1491 1492 1494 1495 1496 1497 1498 1499 1499 1499 1499 1499 1499 1499 1498 1498 1499 1499 1499 1499 1499 1500 1500 1500
1462 1463 1464 1465 1467 1469 1469 1471 1472 1474 1475 1476 1477 1479 1480 1481 1483 1484 1486 1487 1489 1490 1491 1492 1494 1495 1495 1496 1496 1496 1496 1496 1496 1495 1495 1495 1495 1495 1496 1496 1496 1496 1496
1460 1462 1463 1464 1465 1466 1467 1468 1470 1471 1471 1472 1474 1475 1476 1477 1478 1480 1482 1484 1486 1487 1488 1489 1490 1491 1492 1493 1492 1493 1493 1493 1492 1492 1492 1492 1492 1492 1492 1492 1493 1493 1493